www.pogodaiklimat.ru

Погода и климат >> Архив погоды >> Индия >> Карнатака >> Карвар


ПОГОДА в Карваре

  • Прогноз погоды в Карваре
  • Монитор погоды в Карваре

АРХИВ ПОГОДЫ в Карваре

Время (UTC), дата Ветер
(напр.,м/с)
 
Видим.   Явления Облачность Т
(С)
Тd
(С)
f
(%)
Тe
(С)
Тes
(С)
Комфортность P
(гПа)
Po
(гПа)
Тmin
(С)
Tmax
(С)
R
(мм)
R24
(мм)
S
(см)
06 17.02 СЗ 1 10 км ясно +29.6 +20.6 58 +36 +56 опасность
солнечного
удара
1015.9 1015.4
09 17.02 СЗ 2 10 км ясно +34.0 +23.4 54 +45 +58 опасность
перегрева
1012.8 1012.3
12 17.02 СЗ 2 10 км ясно +30.0 +21.4 60 +38 +39 очень
душно
1011.8 1011.3 +34.2
03 18.02 ЮВ 1 4000 м мгла ясно +19.8 +16.1 79 +23 +28 комфорт 1014.1 1013.6 +18.1 +34.2
06 18.02 З 2 10 км ясно +30.4 +18.3 48 +35 +53 опасность
солнечного
удара
1013.7 1013.2
09 18.02 З 1 10 км ясно +34.6 +19.2 40 +40 +55 опасность
солнечного
удара
1010.8 1010.3
12 18.02 СЗ 1 10 км ясно +31.0 +17.9 46 +35 +37 очень
душно
1010.1 1009.6 +35.0
03 19.02 штиль 0 4000 м мгла ясно +19.0 +12.2 65 +20 +25 1012.9 1012.4 +17.5 +35.0
06 19.02 З 2 10 км ясно +30.8 +19.9 52 +37 +55 опасность
солнечного
удара
1013.6 1013.1
09 19.02 ЮЗ 1 10 км ясно +32.6 +21.4 52 +41 +57 опасность
перегрева
1011.7 1011.2
12 19.02 ЮЗ 1 10 км ясно +30.6 +21.7 59 +39 +40 очень
душно
1011.4 1010.9 +32.6
03 20.02 штиль 0 4000 м мгла ясно +21.6 +15.2 67 +25 +30 комфорт 1015.0 1014.5 +20.3 +32.6
06 20.02 З 1 10 км ясно +31.0 +22.2 60 +40 +60 опасность
солнечного
удара
1014.8 1014.3
09 20.02 ЮЗ 1 10 км ясно +33.6 +18.6 41 +38 +54 опасность
солнечного
удара
1012.3 1011.8
12 20.02 З 1 10 км ясно +31.6 +22.9 60 +42 +43 опасность
перегрева
1012.1 1011.6 +34.2
03 21.02 СВ 1 4000 м мгла ясно +23.0 +18.2 74 +29 +33 очень
душно
1017.7 1017.2 +21.3 +34.2
06 21.02 СЗ 1 10 км ясно +32.8 +23.3 57 +43 +63 опасность
перегрева
1017.0 1016.5
09 21.02 З 1 10 км ясно +35.2 +24.8 55 +48 +64 опасность
перегрева
1014.4 1013.9
12 21.02 СЗ 2 10 км ясно +30.6 +24.9 72 +44 +45 опасность
перегрева
1013.3 1012.8 +35.6
03 22.02 штиль 0 4000 м мгла ясно +22.0 +18.8 82 +27 +32 душно 1015.6 1015.1 +20.7 +35.6
06 22.02 СЗ 1 10 км ясно +33.6 +20.5 46 +40 +60 опасность
солнечного
удара
1014.7 1014.2
09 22.02 СЗ 2 10 км ясно +37.0 +25.0 50 +50 +65 опасность
перегрева
1011.4 1010.9
12 22.02 СЗ 2 10 км ясно +31.6 +22.6 59 +41 +42 опасность
перегрева
1010.3 1009.8 +37.2
03 23.02 штиль 0 4000 м мгла ясно +23.0 +16.5 67 +28 +33 душно 1013.1 1012.6 +21.5 +37.2
06 23.02 СЗ 1 10 км ясно +32.6 +23.4 58 +43 +63 опасность
перегрева
1013.1 1012.6
09 23.02 СЗ 1 10 км ясно +35.0 +24.2 54 +47 +64 опасность
перегрева
1010.4 1009.9
12 23.02 СЗ 1 10 км ясно +32.0 +24.0 63 +44 +45 опасность
перегрева
1009.7 1009.2 +37.8
03 24.02 штиль 0 10 км ясно +22.6 +18.5 78 +28 +34 душно 1012.2 1011.7 +20.9 +37.8

 

Местоположение метеостанции Карвар (Карнатака, Индия): широта 14.78 долгота 74.13 высота над уровнем моря 4 м.

В архиве по умолчанию представлена погода в Карваре за последнюю неделю. Архивные данные за месяц целиком и за предыдущие месяцы, начиная с января 2011 года, Вы можете получить, выбрав интересующий диапазон дат из раскрывающегося списка и нажав кнопку "Ввод!".


*Определитесь, кто Вы:
робот инопланетянин человек

Внимание! Время в таблицах - всемирное. Для получения местного времени необходимо прибавить поправку, которая равна 5.5 ч.

Смотрите также архив погоды в соседних городах и на ближайших метеорологических станциях:

Погода в Хоннаваре (Карнатака, Индия) (65 км)
Погода в Мормугао (Гоа, Индия) (80 км)
Погода в Панаджи (Гоа, Индия) (85 км)
Погода в Ширали (Карнатака, Индия) (90 км)
Погода в Дхарваде (Карнатака, Индия) (120 км)
Погода в Белгауме (Карнатака, Индия) (127 км)
Погода в Белгаум аэропорту (Карнатака, Индия) (130 км)
Погода в Венгерле (Махараштра, Индия) (133 км)
Погода в Хавери (Карнатака, Индия) (137 км)
Погода на Агамбе (Карнатака, Индия) (175 км)

Пояснения к столбцам:

Ветер - указаны скорость ветра в м/с - средняя за 10 мин, порывы в срок и между сроками (в фигурных скобках) и направление, откуда дует ветер: С - северный, СВ - северо-восточный, В - восточный, ЮВ - юго-восточный, Ю - южный, ЮЗ - юго-западный, З - западный, СЗ - северо-западный.
Видимость - горизонтальная дальность видимости в метрах или километрах. При видимости от 1 до 10 км при отсутствии осадков обычно наблюдается дымка, при ухудшении видимости до 1 км и менее - туман. В сухую погоду видимость может ухудшаться дымом, пылью или мглою.
Явления - указаны атмосферные явления, наблюдавшиеся в срок или в последний час перед сроком; фигурными скобками обозначены явления, наблюдавшиеся между сроками (за 1-3 часа до срока); квадратными скобками обозначены град или гололедные отложения с указанием их диаметра в мм.
Облачность - указаны через наклонную черту общая и нижняя облачность в баллах и высота нижней границы облаков в метрах; квадратными скобками обозначены формы облаков: Ci - перистые, Cs - перисто-слоистые, Cc - перисто-кучевые, Ac - высококучевые, As - высокослоистые, Sc - слоисто-кучевые, Ns - слоисто-дождевые, Cu - кучевые, Cb - кучево-дождевые. Подробнее классификацию облаков см. в Атласе облаков (PDF).
T - Температура воздуха - температура, измеренная на высоте 2 м над землей.
Td - Температура точки росы - температура, при понижении до которой содержащийся в воздухе водяной пар достигнет насыщения.
f - Относительная влажность воздуха - влажноcть воздуха, измеренная на высоте 2 м над землей.
Te - Эффективная температура - температура, которую ощущает одетый по сезону человек в тени. Характеристика душности погоды. При расчете учитывается влияние влажности воздуха и скорости ветра на теплоощущения человека.
Tes - Эффективная температура на солнце - температура, которую ощущает человек, с поправкой на солнечный нагрев. Характеристика знойности погоды. Зависит от высоты солнца над горизонтом, облачности и скорости ветра. Ночью, в пасмурную погоду, а также при ветре 12 м/с и более поправка равна нулю.
P - Атмосферное давление - приведенное к уровню моря атмосферное давление.
Po - Атмосферное давление - измеренное на уровне метеостанции атмосферное давление.
Tmin - Минимальная температура - минимум температуры воздуха на высоте 2 м над землей.
Tmax - Максимальная температура - максимум температуры воздуха на высоте 2 м над землей.
R - Количество осадков - Количество выпавших осадков за период времени, мм. При наведении курсора мыши на число - период времени, за который выпало указанное количество осадков.
R24 - Количество осадков - Количество выпавших осадков за 24 часа, мм.
S - Снежный покров - Высота снежного покрова, см. При наведении курсора мыши на число - состояние снежного покрова и степень покрытия местности в баллах.